| time (UTC) | temp C | wind direction | speed KPH | gust KPH | rain 1hr cm | rain 24hr cm | rain mn cm | humidity % | barometer mb |
| 20260502215057 | 10 | 0 | 0.0 | 1.6 | 0.00 | 0.08 | 0.08 | 37 | 1009.6 |
| 20260502214557 | 10 | 0 | 0.0 | 0.0 | 0.00 | 0.08 | 0.08 | 43 | 1009.6 |
| 20260502214059 | 10 | 0 | 0.0 | 0.0 | 0.00 | 0.08 | 0.08 | 44 | 1009.7 |
| 20260502213559 | 10 | 0 | 0.0 | 0.0 | 0.00 | 0.08 | 0.08 | 45 | 1009.8 |
| 20260502213108 | 10 | 0 | 0.0 | 0.0 | 0.00 | 0.08 | 0.08 | 46 | 1009.7 |
| 20260502212559 | 10 | 0 | 0.0 | 0.0 | 0.00 | 0.08 | 0.08 | 48 | 1009.7 |
| 20260502212058 | 10 | 0 | 0.0 | 0.0 | 0.00 | 0.08 | 0.08 | 49 | 1009.6 |
| 20260502211600 | 10 | 0 | 0.0 | 0.0 | 0.00 | 0.08 | 0.08 | 45 | 1009.8 |
| 20260502211102 | 10 | 0 | 0.0 | 0.0 | 0.00 | 0.08 | 0.08 | 45 | 1009.8 |
| 20260502210600 | 10 | 0 | 0.0 | 0.0 | 0.00 | 0.08 | 0.08 | 45 | 1009.8 |
| 20260502210059 | 10 | 0 | 0.0 | 0.0 | 0.00 | 0.08 | 0.08 | 46 | 1009.7 |
| 20260502205600 | 10 | 0 | 0.0 | 0.0 | 0.00 | 0.08 | 0.08 | 49 | 1009.8 |
| 20260502205100 | 10 | 0 | 0.0 | 0.0 | 0.00 | 0.08 | 0.08 | 51 | 1009.9 |
| 20260502204618 | 10 | 0 | 0.0 | 3.2 | 0.00 | 0.08 | 0.08 | 50 | 1009.8 |
| 20260502204103 | 10 | 0 | 0.0 | 6.4 | 0.00 | 0.08 | 0.08 | 52 | 1009.8 |
| 20260502203600 | 10 | 0 | 0.0 | 6.4 | 0.00 | 0.08 | 0.08 | 55 | 1009.8 |
| 20260502203104 | 10 | 300 | 0.0 | 6.4 | 0.00 | 0.08 | 0.08 | 58 | 1009.9 |
| 20260502202601 | 10 | 300 | 0.0 | 8.0 | 0.00 | 0.08 | 0.08 | 60 | 1009.9 |
| 20260502202059 | 10 | 0 | 3.2 | 14.5 | 0.00 | 0.08 | 0.08 | 64 | 1010.0 |
| 20260502201558 | 10 | 317 | 4.8 | 16.1 | 0.00 | 0.08 | 0.08 | 68 | 1010.0 |
| 20260502201100 | 11 | 290 | 6.4 | 16.1 | 0.00 | 0.08 | 0.08 | 70 | 1010.1 |
| 20260502200600 | 11 | 302 | 9.7 | 16.1 | 0.00 | 0.08 | 0.08 | 70 | 1010.0 |
| 20260502200100 | 12 | 306 | 9.7 | 16.1 | 0.00 | 0.08 | 0.08 | 69 | 1009.8 |
| 20260502195557 | 12 | 298 | 3.2 | 14.5 | 0.00 | 0.08 | 0.08 | 68 | 1009.7 |
| 20260502195058 | 12 | 269 | 0.0 | 11.3 | 0.00 | 0.08 | 0.08 | 67 | 1009.6 |
| 20260502194558 | 13 | 274 | 0.0 | 4.8 | 0.00 | 0.08 | 0.08 | 66 | 1009.6 |
| 20260502194101 | 13 | 0 | 0.0 | 4.8 | 0.00 | 0.08 | 0.08 | 65 | 1009.5 |
| 20260502193600 | 13 | 0 | 0.0 | 9.7 | 0.00 | 0.08 | 0.08 | 66 | 1009.6 |
| 20260502193101 | 13 | 268 | 0.0 | 9.7 | 0.00 | 0.08 | 0.08 | 66 | 1009.6 |
| 20260502192558 | 12 | 111 | 3.2 | 9.7 | 0.00 | 0.08 | 0.08 | 65 | 1009.6 |
| 20260502192059 | 13 | 253 | 0.0 | 6.4 | 0.00 | 0.08 | 0.08 | 67 | 1009.7 |
| 20260502191600 | 12 | 0 | 0.0 | 8.0 | 0.00 | 0.08 | 0.08 | 66 | 1009.9 |
| 20260502191059 | 12 | 0 | 0.0 | 8.0 | 0.00 | 0.08 | 0.08 | 67 | 1009.9 |
| 20260502190558 | 12 | 241 | 0.0 | 6.4 | 0.00 | 0.08 | 0.08 | 66 | 1010.0 |
| 20260502190100 | 12 | 0 | 1.6 | 6.4 | 0.00 | 0.08 | 0.08 | 65 | 1010.0 |
| 20260502185559 | 12 | 240 | 0.0 | 6.4 | 0.00 | 0.08 | 0.08 | 65 | 1010.0 |
| 20260502185058 | 12 | 139 | 0.0 | 6.4 | 0.00 | 0.08 | 0.08 | 65 | 1010.0 |
| 20260502184605 | 12 | 0 | 0.0 | 8.0 | 0.00 | 0.08 | 0.08 | 66 | 1009.9 |
| 20260502184058 | 12 | 306 | 1.6 | 11.3 | 0.00 | 0.08 | 0.08 | 65 | 1010.0 |
| 20260502183558 | 12 | 0 | 1.6 | 11.3 | 0.00 | 0.08 | 0.08 | 66 | 1010.0 |
| 20260502183100 | 12 | 126 | 3.2 | 11.3 | 0.00 | 0.08 | 0.08 | 64 | 1010.0 |
| 20260502182557 | 12 | 122 | 1.6 | 9.7 | 0.00 | 0.08 | 0.08 | 66 | 1010.0 |
| 20260502182057 | 12 | 231 | 3.2 | 9.7 | 0.00 | 0.08 | 0.08 | 66 | 1009.9 |
| 20260502181558 | 13 | 115 | 3.2 | 6.4 | 0.00 | 0.08 | 0.08 | 65 | 1009.9 |
| 20260502181058 | 13 | 144 | 0.0 | 9.7 | 0.00 | 0.08 | 0.08 | 64 | 1009.9 |
| 20260502180559 | 13 | 0 | 1.6 | 11.3 | 0.00 | 0.08 | 0.08 | 66 | 1010.0 |
| 20260502180109 | 13 | 252 | 1.6 | 11.3 | 0.00 | 0.08 | 0.08 | 64 | 1009.9 |
| 20260502170109 | 11 | 280 | 0.0 | 9.7 | 0.00 | 0.08 | 0.08 | 69 | 1010.6 |
| 20260502164100 | 11 | 0 | 0.0 | 3.2 | 0.00 | 0.08 | 0.08 | 63 | 1010.6 |
| 20260502163602 | 11 | 0 | 0.0 | 3.2 | 0.00 | 0.08 | 0.08 | 62 | 1010.6 |
| 20260502163059 | 11 | 0 | 0.0 | 3.2 | 0.00 | 0.08 | 0.08 | 58 | 1010.8 |
| 20260502162559 | 11 | 0 | 0.0 | 3.2 | 0.00 | 0.08 | 0.08 | 58 | 1010.8 |
| 20260502162059 | 11 | 0 | 0.0 | 3.2 | 0.00 | 0.08 | 0.08 | 54 | 1010.9 |
| 20260502161600 | 11 | 0 | 0.0 | 3.2 | 0.00 | 0.08 | 0.08 | 54 | 1011.0 |
| 20260502161059 | 11 | 0 | 0.0 | 3.2 | 0.00 | 0.08 | 0.08 | 52 | 1011.0 |
| 20260502160558 | 11 | 0 | 0.0 | 1.6 | 0.00 | 0.08 | 0.08 | 52 | 1011.0 |
| 20260502152100 | 10 | 0 | 0.0 | 3.2 | 0.00 | 0.08 | 0.08 | 23 | 1011.2 |
| 20260502151606 | 10 | 0 | 0.0 | 1.6 | 0.00 | 0.08 | 0.08 | 19 | 1011.5 |
| 20260502151058 | 10 | 0 | 0.0 | 3.2 | 0.00 | 0.08 | 0.08 | 20 | 1011.6 |
| 20260502150558 | 9 | 0 | 0.0 | 3.2 | 0.00 | 0.08 | 0.08 | 21 | 1011.6 |
| 20260502130558 | 8 | 0 | 0.0 | 0.0 | 0.05 | 0.05 | 0.05 | 14 | 1012.2 |
| 20260502123558 | 8 | 0 | 0.0 | 0.0 | 0.00 | 0.00 | 0.00 | 16 | 1012.3 |
| 20260502123101 | 8 | 0 | 0.0 | 0.0 | 0.00 | 0.00 | 0.00 | 16 | 1012.3 |
| 20260502122601 | 8 | 0 | 0.0 | 0.0 | 0.00 | 0.00 | 0.00 | 16 | 1012.3 |
| 20260502122058 | 8 | 0 | 0.0 | 1.6 | 0.00 | 0.00 | 0.00 | 16 | 1012.4 |
| 20260502121559 | 8 | 0 | 0.0 | 1.6 | 0.00 | 0.00 | 0.00 | 17 | 1012.3 |
| 20260502121058 | 8 | 0 | 0.0 | 1.6 | 0.00 | 0.00 | 0.00 | 18 | 1012.2 |
| 20260502120557 | 8 | 0 | 0.0 | 1.6 | 0.00 | 0.00 | 0.00 | 19 | 1012.1 |
| 20260502120104 | 8 | 0 | 0.0 | 1.6 | 0.00 | 0.00 | 0.00 | 19 | 1011.8 |
| 20260502115601 | 8 | 0 | 0.0 | 1.6 | 0.00 | 0.00 | 0.00 | 19 | 1011.9 |
| 20260502115104 | 8 | 0 | 0.0 | 1.6 | 0.00 | 0.00 | 0.00 | 21 | 1011.7 |
| 20260502114559 | 7 | 0 | 0.0 | 0.0 | 0.00 | 0.00 | 0.00 | 22 | 1011.6 |
| 20260502114059 | 7 | 0 | 0.0 | 0.0 | 0.00 | 0.00 | 0.00 | 23 | 1011.4 |
| 20260502113602 | 7 | 0 | 0.0 | 0.0 | 0.00 | 0.00 | 0.00 | 24 | 1011.4 |
| 20260502113058 | 7 | 0 | 0.0 | 0.0 | 0.00 | 0.00 | 0.00 | 25 | 1011.6 |
| 20260502112558 | 7 | 0 | 0.0 | 0.0 | 0.00 | 0.00 | 0.00 | 27 | 1011.7 |
| 20260502112058 | 7 | 0 | 0.0 | 0.0 | 0.00 | 0.00 | 0.00 | 29 | 1011.6 |
| 20260502111620 | 7 | 0 | 0.0 | 0.0 | 0.00 | 0.00 | 0.00 | 29 | 1011.9 |
| 20260502111102 | 7 | 0 | 0.0 | 0.0 | 0.00 | 0.00 | 0.00 | 31 | 1011.7 |
| 20260502110558 | 7 | 0 | 0.0 | 0.0 | 0.00 | 0.00 | 0.00 | 32 | 1011.6 |
| 20260502110059 | 7 | 0 | 0.0 | 0.0 | 0.00 | 0.00 | 0.00 | 33 | 1011.6 |
| 20260502105600 | 7 | 0 | 0.0 | 0.0 | 0.00 | 0.00 | 0.00 | 34 | 1011.5 |
| 20260502105059 | 7 | 0 | 0.0 | 0.0 | 0.00 | 0.00 | 0.00 | 33 | 1011.5 |
| 20260502104558 | 7 | 0 | 0.0 | 0.0 | 0.00 | 0.00 | 0.00 | 33 | 1011.4 |
| 20260502104058 | 7 | 0 | 0.0 | 0.0 | 0.00 | 0.00 | 0.00 | 34 | 1011.3 |
| 20260502103559 | 7 | 0 | 0.0 | 0.0 | 0.00 | 0.00 | 0.00 | 34 | 1011.2 |
| 20260502103110 | 7 | 0 | 0.0 | 0.0 | 0.00 | 0.00 | 0.00 | 35 | 1011.1 |
| 20260502102600 | 7 | 0 | 0.0 | 0.0 | 0.00 | 0.00 | 0.00 | 35 | 1011.0 |
| 20260502102058 | 7 | 0 | 0.0 | 0.0 | 0.00 | 0.00 | 0.00 | 35 | 1011.1 |
| 20260502101611 | 7 | 0 | 0.0 | 0.0 | 0.00 | 0.00 | 0.00 | 36 | 1011.1 |
| 20260502101058 | 7 | 0 | 0.0 | 0.0 | 0.00 | 0.00 | 0.00 | 36 | 1011.1 |
| 20260502100558 | 7 | 0 | 0.0 | 3.2 | 0.00 | 0.00 | 0.00 | 36 | 1011.0 |
| 20260502100104 | 7 | 0 | 0.0 | 3.2 | 0.00 | 0.00 | 0.00 | 37 | 1010.9 |
| 20260502091058 | 7 | 0 | 0.0 | 1.6 | 0.00 | 0.00 | 0.00 | 44 | 1010.7 |
| 20260502090601 | 7 | 0 | 0.0 | 0.0 | 0.00 | 0.00 | 0.00 | 45 | 1010.6 |
| 20260502090104 | 7 | 0 | 0.0 | 0.0 | 0.00 | 0.00 | 0.00 | 45 | 1010.6 |
| 20260502071058 | 8 | 0 | 0.0 | 0.0 | 0.00 | 0.00 | 0.00 | 66 | 1011.0 |
| 20260502070600 | 8 | 0 | 0.0 | 0.0 | 0.00 | 0.00 | 0.00 | 67 | 1011.1 |
| 20260502070100 | 8 | 0 | 0.0 | 0.0 | 0.00 | 0.00 | 0.00 | 66 | 1011.0 |
| 20260502065559 | 8 | 0 | 0.0 | 1.6 | 0.00 | 0.00 | 0.00 | 65 | 1011.0 |
| 20260502065057 | 8 | 0 | 0.0 | 1.6 | 0.00 | 0.00 | 0.00 | 65 | 1011.1 |
| 20260502064603 | 8 | 0 | 0.0 | 1.6 | 0.00 | 0.00 | 0.00 | 64 | 1011.1 |
| 20260502064102 | 8 | 0 | 0.0 | 1.6 | 0.00 | 0.00 | 0.00 | 66 | 1010.9 |
| 20260502063559 | 8 | 0 | 0.0 | 3.2 | 0.00 | 0.00 | 0.00 | 69 | 1011.0 |
| 20260502063101 | 8 | 0 | 0.0 | 3.2 | 0.00 | 0.00 | 0.00 | 70 | 1011.2 |
| 20260502062558 | 8 | 0 | 0.0 | 1.6 | 0.00 | 0.00 | 0.00 | 70 | 1011.4 |
| 20260502062059 | 8 | 0 | 0.0 | 1.6 | 0.00 | 0.00 | 0.00 | 71 | 1011.5 |
| 20260502061558 | 8 | 0 | 0.0 | 1.6 | 0.00 | 0.00 | 0.00 | 71 | 1011.3 |
| 20260502061101 | 7 | 0 | 0.0 | 0.0 | 0.00 | 0.00 | 0.00 | 71 | 1011.3 |
| 20260502060558 | 7 | 0 | 0.0 | 0.0 | 0.00 | 0.00 | 0.00 | 71 | 1011.1 |
| 20260502060057 | 7 | 0 | 0.0 | 0.0 | 0.00 | 0.00 | 0.00 | 71 | 1011.0 |
| 20260502055600 | 7 | 0 | 0.0 | 0.0 | 0.00 | 0.00 | 0.00 | 71 | 1011.1 |
| 20260502055058 | 7 | 0 | 0.0 | 0.0 | 0.00 | 0.00 | 0.00 | 71 | 1011.2 |
| 20260502054603 | 7 | 0 | 0.0 | 0.0 | 0.00 | 0.00 | 0.00 | 71 | 1011.1 |
| 20260502054058 | 7 | 0 | 0.0 | 0.0 | 0.00 | 0.00 | 0.00 | 71 | 1011.1 |
| 20260502053558 | 7 | 0 | 0.0 | 1.6 | 0.00 | 0.00 | 0.00 | 70 | 1011.1 |
| 20260502053058 | 7 | 0 | 0.0 | 1.6 | 0.00 | 0.00 | 0.00 | 70 | 1011.1 |
| 20260502052558 | 7 | 0 | 0.0 | 1.6 | 0.00 | 0.00 | 0.00 | 71 | 1011.0 |
| 20260502052102 | 7 | 0 | 0.0 | 0.0 | 0.00 | 0.00 | 0.00 | 71 | 1011.2 |
| 20260502051558 | 7 | 0 | 0.0 | 0.0 | 0.00 | 0.00 | 0.00 | 71 | 1011.3 |
| 20260502051058 | 7 | 0 | 0.0 | 0.0 | 0.00 | 0.00 | 0.00 | 71 | 1011.3 |
| 20260502050558 | 7 | 0 | 0.0 | 0.0 | 0.00 | 0.00 | 0.00 | 71 | 1011.2 |
| 20260502050058 | 7 | 0 | 0.0 | 0.0 | 0.00 | 0.00 | 0.00 | 71 | 1011.2 |
| 20260502045559 | 7 | 0 | 0.0 | 0.0 | 0.00 | 0.00 | 0.00 | 71 | 1011.2 |
| 20260502045059 | 7 | 0 | 0.0 | 0.0 | 0.00 | 0.00 | 0.00 | 71 | 1011.3 |
| 20260502044600 | 7 | 0 | 0.0 | 0.0 | 0.00 | 0.00 | 0.00 | 70 | 1011.2 |
| 20260502044058 | 7 | 0 | 0.0 | 0.0 | 0.00 | 0.00 | 0.00 | 70 | 1011.2 |
| 20260502043558 | 7 | 0 | 0.0 | 0.0 | 0.00 | 0.00 | 0.00 | 71 | 1011.3 |
| 20260502043108 | 7 | 0 | 0.0 | 0.0 | 0.00 | 0.00 | 0.00 | 71 | 1011.3 |
| 20260502042601 | 7 | 0 | 0.0 | 0.0 | 0.00 | 0.00 | 0.00 | 71 | 1011.2 |
| 20260502042058 | 7 | 0 | 0.0 | 0.0 | 0.00 | 0.00 | 0.00 | 70 | 1011.3 |
| 20260502041558 | 7 | 0 | 0.0 | 0.0 | 0.00 | 0.00 | 0.00 | 71 | 1011.4 |
| 20260502041058 | 7 | 0 | 0.0 | 0.0 | 0.00 | 0.00 | 0.00 | 70 | 1011.5 |
| 20260502040559 | 7 | 0 | 0.0 | 0.0 | 0.00 | 0.00 | 0.00 | 70 | 1011.5 |
| 20260502040059 | 7 | 0 | 0.0 | 0.0 | 0.00 | 0.00 | 0.00 | 70 | 1011.4 |
| 20260502035600 | 7 | 0 | 0.0 | 0.0 | 0.00 | 0.00 | 0.00 | 70 | 1011.5 |
| 20260502035059 | 7 | 0 | 0.0 | 0.0 | 0.00 | 0.00 | 0.00 | 69 | 1011.4 |
| 20260502034558 | 7 | 0 | 0.0 | 0.0 | 0.00 | 0.00 | 0.00 | 68 | 1011.4 |
| 20260502034059 | 7 | 0 | 0.0 | 0.0 | 0.00 | 0.00 | 0.00 | 68 | 1011.5 |
| 20260502033558 | 7 | 0 | 0.0 | 0.0 | 0.00 | 0.00 | 0.00 | 67 | 1011.5 |
| 20260502033058 | 7 | 0 | 0.0 | 0.0 | 0.00 | 0.00 | 0.00 | 68 | 1011.4 |
| 20260502032558 | 7 | 0 | 0.0 | 0.0 | 0.00 | 0.00 | 0.00 | 67 | 1011.6 |
| 20260502032101 | 7 | 0 | 0.0 | 1.6 | 0.00 | 0.00 | 0.00 | 67 | 1011.4 |
| 20260502031558 | 7 | 0 | 0.0 | 1.6 | 0.00 | 0.00 | 0.00 | 66 | 1011.5 |
| 20260502031102 | 7 | 0 | 0.0 | 0.0 | 0.00 | 0.00 | 0.00 | 66 | 1011.4 |
| 20260502030558 | 7 | 0 | 0.0 | 3.2 | 0.00 | 0.00 | 0.00 | 65 | 1011.4 |
| 20260502030100 | 7 | 0 | 0.0 | 3.2 | 0.00 | 0.00 | 0.00 | 64 | 1011.4 |
| 20260502025559 | 7 | 0 | 0.0 | 3.2 | 0.00 | 0.00 | 0.00 | 65 | 1011.4 |
| 20260502025102 | 7 | 0 | 0.0 | 3.2 | 0.00 | 0.00 | 0.00 | 65 | 1011.3 |
| 20260502024559 | 7 | 0 | 0.0 | 3.2 | 0.00 | 0.00 | 0.00 | 66 | 1011.3 |
| 20260502024058 | 7 | 295 | 0.0 | 3.2 | 0.00 | 0.00 | 0.00 | 69 | 1011.2 |
| 20260502023601 | 7 | 0 | 0.0 | 0.0 | 0.00 | 0.00 | 0.00 | 70 | 1011.1 |
| 20260502023102 | 7 | 0 | 0.0 | 0.0 | 0.00 | 0.00 | 0.00 | 69 | 1011.2 |
| 20260502022559 | 7 | 0 | 0.0 | 0.0 | 0.00 | 0.00 | 0.00 | 69 | 1011.2 |
| 20260502022055 | 7 | 0 | 0.0 | 0.0 | 0.00 | 0.00 | 0.00 | 69 | 1011.1 |
| 20260502021603 | 7 | 0 | 0.0 | 0.0 | 0.00 | 0.00 | 0.00 | 69 | 1011.1 |
| 20260502021055 | 7 | 0 | 0.0 | 0.0 | 0.00 | 0.00 | 0.00 | 69 | 1011.0 |
| 20260502020559 | 7 | 0 | 0.0 | 0.0 | 0.00 | 0.00 | 0.00 | 68 | 1011.1 |
| 20260502015601 | 7 | 0 | 0.0 | 0.0 | 0.00 | 0.00 | 0.00 | 67 | 1011.2 |
| 20260502015059 | 8 | 0 | 0.0 | 0.0 | 0.00 | 0.00 | 0.00 | 66 | 1011.1 |
| 20260502014559 | 8 | 0 | 0.0 | 0.0 | 0.00 | 0.00 | 0.00 | 66 | 1011.0 |
| 20260502014059 | 8 | 0 | 0.0 | 0.0 | 0.00 | 0.00 | 0.00 | 66 | 1011.0 |
| 20260502013558 | 8 | 0 | 0.0 | 0.0 | 0.00 | 0.00 | 0.00 | 65 | 1011.0 |
| 20260502013102 | 8 | 0 | 0.0 | 0.0 | 0.00 | 0.00 | 0.00 | 64 | 1011.1 |
| 20260502012558 | 8 | 0 | 0.0 | 0.0 | 0.00 | 0.00 | 0.00 | 65 | 1011.1 |
| 20260502012100 | 8 | 0 | 0.0 | 0.0 | 0.00 | 0.00 | 0.00 | 64 | 1011.0 |
| 20260502011604 | 8 | 0 | 0.0 | 0.0 | 0.00 | 0.00 | 0.00 | 62 | 1011.0 |
| 20260502011059 | 9 | 0 | 0.0 | 0.0 | 0.00 | 0.00 | 0.00 | 61 | 1010.8 |
| 20260502010558 | 9 | 0 | 0.0 | 0.0 | 0.00 | 0.00 | 0.00 | 59 | 1010.7 |
| 20260502010100 | 9 | 0 | 0.0 | 0.0 | 0.00 | 0.00 | 0.00 | 58 | 1010.7 |
| 20260502005558 | 9 | 0 | 0.0 | 0.0 | 0.00 | 0.00 | 0.00 | 56 | 1010.6 |
| 20260502005059 | 10 | 0 | 0.0 | 0.0 | 0.00 | 0.00 | 0.00 | 58 | 1010.6 |
| 20260502004609 | 10 | 0 | 0.0 | 0.0 | 0.00 | 0.00 | 0.00 | 57 | 1010.7 |
| 20260502004100 | 10 | 0 | 0.0 | 0.0 | 0.00 | 0.00 | 0.00 | 56 | 1010.5 |
| 20260502003559 | 11 | 0 | 0.0 | 0.0 | 0.00 | 0.00 | 0.00 | 52 | 1010.4 |
| 20260502003108 | 11 | 0 | 0.0 | 0.0 | 0.00 | 0.00 | 0.00 | 51 | 1010.5 |
| 20260502002558 | 11 | 0 | 0.0 | 0.0 | 0.00 | 0.00 | 0.00 | 49 | 1010.3 |
| 20260502002058 | 12 | 0 | 0.0 | 0.0 | 0.00 | 0.00 | 0.00 | 47 | 1010.2 |
| 20260502001608 | 12 | 0 | 0.0 | 0.0 | 0.00 | 0.00 | 0.00 | 46 | 1010.0 |
| 20260502001057 | 12 | 0 | 0.0 | 0.0 | 0.00 | 0.00 | 0.00 | 47 | 1010.0 |
| 20260502000559 | 12 | 0 | 0.0 | 0.0 | 0.00 | 0.00 | 0.00 | 45 | 1010.0 |
| 20260502000117 | 13 | 0 | 0.0 | 0.0 | 0.00 | 0.00 | 0.00 | 43 | 1009.8 |
| 20260501235558 | 13 | 0 | 0.0 | 0.0 | 0.00 | 0.00 | 0.00 | 45 | 1009.8 |
| 20260501235102 | 13 | 0 | 0.0 | 0.0 | 0.00 | 0.00 | 0.00 | 41 | 1009.7 |
| 20260501234559 | 14 | 0 | 0.0 | 3.2 | 0.00 | 0.00 | 0.00 | 42 | 1009.6 |
| 20260501234059 | 14 | 0 | 0.0 | 3.2 | 0.00 | 0.00 | 0.00 | 40 | 1009.6 |
| 20260501233627 | 14 | 0 | 0.0 | 8.0 | 0.00 | 0.00 | 0.00 | 37 | 1009.5 |
| 20260501233102 | 15 | 295 | 0.0 | 8.0 | 0.00 | 0.00 | 0.00 | 37 | 1009.4 |
| 20260501232558 | 15 | 295 | 1.6 | 8.0 | 0.00 | 0.00 | 0.00 | 36 | 1009.3 |
| 20260501232059 | 15 | 0 | 0.0 | 3.2 | 0.00 | 0.00 | 0.00 | 36 | 1009.3 |
| 20260501231606 | 15 | 0 | 0.0 | 6.4 | 0.00 | 0.00 | 0.00 | 38 | 1009.1 |
| 20260501231059 | 15 | 297 | 1.6 | 6.4 | 0.00 | 0.00 | 0.00 | 35 | 1009.2 |
| 20260501230600 | 15 | 295 | 3.2 | 9.7 | 0.00 | 0.00 | 0.00 | 34 | 1009.1 |
| 20260501230059 | 15 | 295 | 3.2 | 9.7 | 0.00 | 0.00 | 0.00 | 34 | 1009.0 |
| 20260501225601 | 15 | 286 | 1.6 | 6.4 | 0.00 | 0.00 | 0.00 | 35 | 1009.0 |
| 20260501225058 | 15 | 0 | 0.0 | 6.4 | 0.00 | 0.00 | 0.00 | 34 | 1009.0 |
| 20260501224600 | 15 | 301 | 0.0 | 8.0 | 0.00 | 0.00 | 0.00 | 34 | 1009.0 |
| 20260501224103 | 15 | 0 | 1.6 | 11.3 | 0.00 | 0.00 | 0.00 | 35 | 1009.0 |
| 20260501223600 | 15 | 302 | 3.2 | 11.3 | 0.00 | 0.00 | 0.00 | 34 | 1009.1 |
| 20260501223107 | 16 | 303 | 4.8 | 11.3 | 0.00 | 0.00 | 0.00 | 34 | 1009.1 |
| 20260501222559 | 16 | 0 | 1.6 | 8.0 | 0.00 | 0.00 | 0.00 | 34 | 1009.1 |
| 20260501222100 | 16 | 304 | 1.6 | 11.3 | 0.00 | 0.00 | 0.00 | 35 | 1009.0 |
| 20260501221601 | 16 | 0 | 1.6 | 11.3 | 0.00 | 0.00 | 0.00 | 34 | 1009.0 |
| 20260501221101 | 16 | 303 | 3.2 | 11.3 | 0.00 | 0.00 | 0.00 | 33 | 1009.0 |
| 20260501220559 | 16 | 298 | 4.8 | 8.0 | 0.00 | 0.00 | 0.00 | 34 | 1008.8 |
| 20260501220106 | 16 | 309 | 1.6 | 6.4 | 0.00 | 0.00 | 0.00 | 33 | 1008.9 |
| 20260501215600 | 16 | 0 | 0.0 | 14.5 | 0.00 | 0.00 | 0.00 | 34 | 1008.9 |